Theta_e
296 292 289 291 292 293 291 289 288 293 296 293 292 292 296 299 298 298 299 300 299 300 305 305 325 335 339 339 335 334 333 335 334 335 332 334 334 338 340 340 339 333 329 326
293 289 294 295 294 292 291 288 289 292 296 293 292 292 296 297 297 298 299 300 300 298 301 303 310 335 337 338 336 335 335 337 335 336 336 336 338 340 341 338 336 332 327 326
291 294 298 295 293 292 290 288 290 290 295 293 291 289 292 296 296 298 299 299 300 301 301 302 315 332 337 337 336 336 338 340 338 339 339 336 334 332 334 333 332 329 327 326
292 296 297 294 293 293 288 294 294 293 289 285 291 286 288 292 294 296 298 302 303 305 309 303 305 331 335 338 340 338 339 341 341 341 340 338 337 336 337 334 332 325 326 325
293 294 294 293 295 297 292 298 295 294 289 285 287 283 287 290 291 295 299 302 303 305 313 318 313 329 334 339 341 341 340 343 343 342 341 339 337 336 336 330 325 325 323 324
295 299 297 296 298 297 298 295 292 288 286 282 286 286 285 288 295 298 300 302 303 304 311 318 324 319 334 337 340 341 340 339 341 339 338 338 334 325 325 324 325 323 322 324
292 293 297 297 292 293 295 289 283 282 281 282 288 284 286 300 301 301 301 302 303 304 307 314 319 325 329 331 333 335 336 337 338 336 335 336 329 324 325 324 325 322 320 320
287 287 293 295 291 288 291 292 284 278 279 282 290 283 292 304 305 304 303 303 304 304 305 306 314 322 325 327 329 334 334 333 335 334 334 335 330 327 324 323 322 323 325 323
285 288 294 295 294 292 288 284 289 283 285 282 286 291 299 302 301 301 301 303 303 304 304 305 307 316 322 323 327 329 330 330 330 330 333 331 329 328 326 324 325 324 325 329
287 282 291 293 295 293 290 292 285 287 278 279 283 285 290 296 298 299 299 300 302 305 305 305 306 307 318 323 323 324 325 325 327 330 329 332 332 329 329 328 327 327 326 327
290 287 286 290 288 287 288 286 286 288 289 281 279 285 300 297 299 298 299 301 301 302 305 306 307 308 310 318 321 323 324 324 324 326 328 329 329 333 331 330 331 330 330 329
289 285 280 284 289 293 291 287 286 281 279 281 283 281 301 300 301 302 300 302 303 303 304 304 306 307 310 315 316 318 321 322 324 326 327 326 327 329 331 332 329 328 329 330
286 281 278 281 285 289 285 288 287 284 281 279 276 280 301 302 301 304 302 303 302 302 302 303 303 304 308 309 312 314 317 319 321 325 325 325 325 324 326 329 329 329 330 330
291 283 281 276 277 283 283 286 286 283 277 280 280 281 285 288 290 292 297 302 305 303 302 301 301 302 306 309 310 312 313 318 321 323 322 323 320 325 325 326 330 331 331 331
286 279 281 283 286 287 286 285 286 282 282 278 282 282 287 289 290 292 294 296 299 303 303 303 301 302 303 304 306 308 313 319 322 323 322 321 320 319 324 326 325 331 333 332
288 282 284 283 287 286 284 285 285 284 285 284 283 282 291 294 294 295 295 296 296 298 300 304 304 304 303 300 302 305 310 317 321 322 322 323 324 323 320 322 325 324 325 332
284 282 279 278 283 282 277 282 284 285 287 286 281 286 290 289 292 293 294 295 296 297 298 300 302 303 302 300 302 302 306 315 319 320 320 320 322 324 325 322 319 316 322 327
282 280 279 276 278 271 280 289 290 288 289 289 289 289 290 290 292 294 295 294 295 297 298 298 298 298 299 300 301 302 305 313 317 317 318 317 315 317 321 322 319 320 319 327
285 280 276 272 274 279 283 288 286 284 284 290 288 291 292 293 293 291 296 296 295 295 297 298 300 299 298 299 302 303 309 310 315 316 315 316 313 312 313 315 318 320 319 324
285 283 278 276 272 269 280 291 294 291 279 291 291 290 290 291 284 288 293 295 295 296 297 297 299 301 299 298 299 300 302 307 310 314 314 312 310 308 308 308 309 315 321 324
280 278 275 271 272 279 288 293 294 280 279 290 291 290 289 288 290 293 295 295 296 296 297 298 298 298 299 299 297 298 299 300 307 315 312 309 307 307 306 303 307 312 314 321
280 276 275 275 271 275 292 290 283 285 287 289 290 291 291 292 293 294 295 295 296 296 296 297 297 299 300 300 297 297 296 300 308 313 310 307 306 305 305 304 308 310 312 318
277 282 278 280 279 287 290 289 290 290 288 289 289 291 293 293 293 294 294 295 295 296 296 297 297 297 300 302 298 297 299 300 307 308 306 306 305 303 303 303 304 302 305 310
284 286 279 281 284 287 290 290 291 291 290 291 292 294 295 293 295 294 295 295 296 296 296 297 297 297 298 300 302 298 300 301 304 305 304 304 303 300 302 301 300 302 300 302
284 284 282 281 286 288 289 290 291 291 292 293 295 294 295 295 295 295 295 295 296 297 298 298 297 297 299 301 301 301 303 304 305 304 303 302 301 299 301 298 297 298 298 294
285 282 279 280 287 287 287 290 291 290 291 294 293 294 297 297 295 296 294 295 296 297 300 300 298 296 298 301 302 303 304 302 303 302 302 300 303 301 298 301 300 294 293 293
Wind_Speed
0 3 6 9 8 6 4 4 8 14 12 0 9 7 13 9 5 8 10 9 7 11 14 7 10 15 16 17 18 19 19 18 15 12 11 9 9 8 6 6 11 10 8 9
4 5 10 7 5 5 5 4 12 12 15 6 10 9 10 8 6 5 7 10 9 7 9 5 5 13 16 20 22 20 21 18 18 13 12 7 8 7 8 6 8 11 9 9
8 9 3 4 4 4 7 5 10 11 18 4 5 4 5 6 3 5 8 5 10 11 12 9 6 13 15 17 19 21 23 22 20 17 10 4 5 3 4 5 7 8 9 9
5 6 6 4 6 6 7 8 12 12 5 7 3 11 5 5 7 4 12 13 13 14 11 9 9 9 12 18 18 20 24 20 19 18 15 16 16 11 8 10 8 6 8 7
8 3 4 4 7 4 9 8 8 7 6 1 3 1 9 2 3 8 10 11 12 14 15 16 9 12 14 17 18 19 18 18 19 19 19 15 14 8 5 6 9 8 6 8
7 3 2 3 2 3 4 2 4 5 3 4 6 7 4 2 3 4 5 11 14 15 16 18 16 7 10 11 15 13 14 6 5 6 7 12 11 8 7 6 8 8 7 6
2 2 4 6 4 5 7 6 3 5 3 7 5 2 2 6 7 4 8 12 13 15 15 19 21 15 12 9 5 8 9 6 7 5 5 7 7 10 12 12 10 9 6 5
2 0 8 8 4 2 4 3 5 4 2 5 6 4 3 7 4 6 9 8 13 16 17 17 18 16 13 12 10 7 7 6 6 7 8 6 11 7 5 5 5 4 2 3
2 4 4 10 9 3 6 5 3 1 4 2 4 2 4 4 8 8 10 12 13 13 14 15 17 15 13 12 10 8 11 7 9 7 5 2 1 6 9 8 7 4 5 2
0 3 2 3 3 7 4 1 2 3 3 5 5 4 1 5 6 8 9 8 8 7 13 13 13 13 10 9 7 10 9 7 5 5 5 5 3 4 5 10 11 8 4 4
2 2 5 4 5 3 5 3 4 3 4 7 1 4 1 4 4 2 6 5 4 2 4 5 6 9 8 8 10 9 9 8 5 1 3 3 5 4 2 5 10 11 11 11
1 5 3 4 7 1 4 4 4 4 4 3 2 6 4 3 4 1 5 7 5 5 5 5 6 6 8 9 7 6 8 9 7 5 2 5 6 8 6 10 11 5 8 5
4 1 2 2 2 3 4 1 2 2 3 4 4 5 2 5 8 7 5 10 7 6 3 4 5 6 6 7 8 7 6 3 2 4 5 5 7 9 12 11 5 5 8 9
5 2 4 6 3 0 2 3 4 3 2 3 4 6 9 10 10 11 10 11 11 6 6 3 2 4 5 5 5 5 6 5 6 5 9 8 1 6 8 12 10 9 9 12
4 3 2 4 5 4 5 5 4 4 7 6 5 5 3 7 8 8 9 12 8 7 7 8 5 5 5 6 5 6 5 5 4 8 7 7 5 3 4 2 5 7 8 12
4 2 1 3 3 1 3 9 8 7 6 4 4 4 2 6 7 7 10 11 14 14 13 10 4 6 6 5 5 5 6 5 5 6 5 5 6 5 3 5 5 6 7 9
2 4 3 4 3 5 4 3 1 3 1 2 4 3 5 5 10 9 7 8 10 14 17 14 6 5 6 5 6 6 5 3 3 4 5 4 4 4 6 3 5 6 5 9
5 5 3 3 2 1 5 3 3 1 2 2 1 2 5 7 8 11 4 5 10 13 15 15 11 7 5 3 3 5 5 1 1 3 4 5 6 6 4 6 6 8 6 6
6 5 2 3 3 4 3 1 1 3 6 4 2 4 6 6 8 12 1 7 11 13 12 11 10 9 8 8 3 4 4 2 1 1 3 4 5 6 6 6 8 7 6 6
7 5 5 3 3 4 6 4 4 4 6 3 2 4 5 8 9 13 6 15 18 16 12 12 15 14 10 6 7 5 5 4 4 4 3 2 3 4 5 5 7 5 8 6
3 2 6 3 3 7 4 4 2 3 5 2 3 5 6 8 9 16 18 18 13 14 15 14 12 11 12 9 6 7 6 7 7 4 3 2 2 4 4 5 4 7 9 9
4 4 3 2 3 7 3 1 4 3 1 3 6 8 11 14 17 16 16 16 16 18 16 15 12 12 13 10 5 8 7 7 6 6 5 2 2 3 3 5 6 6 7 7
1 5 4 8 7 4 3 5 3 4 4 5 6 9 13 14 14 16 16 16 16 16 15 13 11 13 13 12 6 8 8 4 6 5 5 4 1 4 4 4 6 5 6 5
3 1 2 3 3 5 5 3 5 5 7 8 11 13 13 15 16 14 14 15 14 14 14 13 12 11 11 8 10 9 8 7 6 7 6 5 3 4 3 2 3 4 5 8
6 1 2 5 7 4 3 7 8 9 8 11 13 13 14 16 17 14 14 17 16 15 14 13 12 11 13 12 10 8 8 8 7 7 6 6 4 2 3 3 3 3 3 1
5 6 5 6 6 5 7 7 4 7 10 13 11 15 15 14 12 13 15 13 14 15 15 12 10 9 11 11 7 8 6 8 7 6 6 5 4 3 3 3 3 4 3 9
Wind_Direction
226 119 213 224 204 191 214 233 269 278 272 344 270 272 282 293 311 307 306 307 266 243 252 229 183 206 197 189 183 184 184 190 181 188 187 188 192 193 195 205 173 169 167 166
28 232 227 224 202 195 207 247 270 291 267 142 276 263 267 278 255 242 287 307 303 291 289 279 228 197 187 187 191 187 191 187 192 189 188 192 185 209 189 198 182 161 168 165
175 234 145 178 255 230 239 206 259 230 289 272 248 273 249 280 256 317 306 325 356 336 314 310 267 199 187 192 193 190 192 191 193 191 174 110 88 54 137 188 184 162 168 168
202 267 236 267 250 179 263 222 247 266 273 263 126 272 271 250 294 344 18 23 356 351 341 313 260 213 200 200 194 206 191 192 191 181 176 180 187 183 196 180 177 152 159 166
234 220 205 213 225 192 228 265 246 243 229 207 276 39 275 218 293 32 9 10 0 356 343 345 315 225 208 202 199 197 206 193 188 184 185 179 187 182 156 158 159 166 165 169
191 209 173 238 62 110 280 281 12 44 114 246 215 183 251 297 318 57 8 12 3 4 354 354 356 295 238 216 205 201 183 180 197 187 186 178 160 155 140 147 172 180 174 174
33 59 74 34 39 13 42 58 328 314 327 246 324 74 328 69 34 33 39 23 12 0 7 8 8 12 29 50 59 97 114 137 128 160 154 163 151 152 165 165 174 176 183 188
99 30 13 332 48 304 13 88 116 268 269 276 324 256 49 74 70 35 44 39 38 22 12 7 4 13 31 43 46 75 99 96 137 149 162 174 164 163 150 144 125 121 130 302
14 94 331 68 64 44 327 56 149 175 359 16 262 107 101 71 33 23 12 34 26 19 15 8 6 4 27 37 50 58 60 46 36 20 327 210 137 166 139 140 114 125 105 26
256 354 65 331 36 35 90 278 63 39 356 304 313 334 103 351 19 360 359 4 352 3 27 10 0 358 355 37 52 62 69 74 60 46 7 347 16 224 165 135 131 115 90 89
88 101 314 16 29 11 3 35 53 98 178 200 201 270 327 291 297 357 297 281 268 286 51 58 13 343 326 22 35 48 55 66 73 280 280 213 260 244 232 201 163 177 174 184
76 145 159 217 330 184 140 153 117 145 231 261 199 268 223 224 258 230 282 283 290 305 328 1 10 359 355 356 22 31 27 35 28 16 299 232 226 229 217 208 239 243 190 174
150 33 71 16 18 17 59 38 172 140 78 224 165 256 207 319 317 309 273 287 204 235 265 303 0 11 357 0 352 8 18 14 347 299 320 281 215 208 217 239 255 171 173 177
74 87 159 194 192 87 262 316 295 153 156 243 227 280 334 351 344 326 315 291 290 244 225 248 278 350 327 336 344 340 351 349 17 28 6 0 238 237 219 209 212 213 201 201
94 119 191 200 229 230 253 250 263 254 222 190 252 254 305 312 313 312 313 345 321 276 247 218 231 263 281 308 318 334 340 0 346 28 36 355 2 347 217 186 169 203 207 213
2 142 58 295 287 271 273 292 279 250 268 257 285 234 40 299 302 345 352 356 4 1 335 283 201 225 250 262 288 325 330 355 11 20 24 6 353 317 310 246 210 204 216 213
125 131 89 265 324 315 325 233 311 295 358 247 230 244 341 320 337 328 336 4 355 350 344 344 299 233 242 277 300 306 298 305 10 27 19 3 354 347 339 303 309 292 273 241
139 115 113 261 345 243 235 23 94 155 93 11 92 327 313 296 293 300 271 348 347 345 340 342 345 328 241 236 256 289 281 285 189 5 12 356 358 349 348 332 274 268 269 268
150 129 162 161 189 287 209 258 79 91 268 197 237 291 287 294 294 290 354 356 335 325 322 315 313 310 296 281 249 317 313 300 231 252 329 358 349 344 353 342 329 301 246 246
108 95 127 136 113 235 234 220 233 138 273 110 303 299 316 336 311 293 348 327 315 314 312 315 319 315 315 303 311 310 287 300 274 220 241 346 355 348 344 334 328 300 299 253
118 97 172 164 193 283 201 253 229 140 244 330 331 304 292 289 273 292 303 303 298 295 300 310 307 295 298 311 313 274 277 256 248 240 224 276 57 7 358 327 312 322 314 285
177 143 196 93 83 270 151 145 180 206 241 284 290 279 281 274 290 287 284 288 295 296 296 294 296 290 293 292 277 265 253 256 249 194 234 271 47 51 10 354 330 342 317 308
303 177 190 172 216 220 195 202 192 188 232 250 258 266 261 272 279 287 290 287 291 290 288 280 273 279 279 280 244 257 253 260 238 204 235 242 151 73 25 358 328 355 346 314
295 186 191 45 275 215 234 237 205 215 230 258 260 272 279 275 278 287 290 287 284 287 283 281 274 268 270 265 268 232 259 262 211 203 216 234 248 106 68 23 352 351 19 322
212 299 223 267 277 273 270 216 223 243 252 267 275 264 272 278 276 278 292 290 294 285 280 272 266 265 272 273 269 262 247 255 209 187 185 211 223 163 115 87 21 4 37 350
190 193 162 223 223 185 243 243 268 266 280 285 281 295 298 290 277 289 288 289 287 284 284 275 256 248 257 257 246 270 250 229 224 188 177 190 202 192 145 144 131 61 90 70